Location: Sternwarte ZA, Rosenfeld-Brittheim
(48.2889°N, 8.6789°E)
Time: 07:58:32
(UTC+02:00)

ISS - Pass Details

Date: 17 March 2018
Orbit: 402 x 407 km, 51.6° (Epoch: 25 June)

Event Time Altitude Azimuth Distance (km) Brightness Sun altitude
Exits shadow 04:35:28 70° 138° (SE) 442 -3.7 -20.3°
Drops below altitude 10° 04:38:27 10° 117° (ESE) 1,474 -0.4 -19.8°
Enters shadow 05:35:51 -66° 310° (NW) 12,067 3.5 -10.6°
